Theta_e
303 297 293 297 298 297 294 296 295 296 297 295 297 297 299 302 303 302 305 308 311 313 318 314 311 310 310 311 311 311 311 312 316 319 322 322 321 319 315 311 307 308 309 312
297 292 299 299 298 295 294 293 293 294 298 296 295 294 298 299 299 301 302 304 307 310 313 309 308 308 309 308 308 308 308 310 312 318 320 321 318 314 310 306 304 305 307 308
291 294 298 297 295 293 292 291 291 290 295 297 294 291 293 298 300 302 303 304 304 306 309 308 307 307 307 306 307 306 306 308 311 315 318 316 314 312 310 307 304 302 304 304
292 297 296 293 292 293 289 295 293 291 289 285 294 285 293 296 296 297 300 302 304 305 307 309 307 306 305 304 304 304 304 306 308 313 317 316 316 313 307 304 302 301 301 302
291 293 293 291 292 295 291 296 294 293 291 290 289 286 290 295 293 296 299 300 301 303 305 307 306 304 302 301 301 301 302 303 306 309 314 314 310 307 304 303 301 301 300 299
294 298 297 295 296 296 298 295 294 293 291 283 287 287 288 291 292 295 298 300 300 301 302 306 304 301 299 298 300 300 300 300 303 305 308 310 307 305 303 302 301 300 299 298
291 292 296 297 293 296 295 290 284 282 282 280 287 286 289 293 294 295 297 299 300 300 301 301 298 298 298 298 299 299 299 297 300 301 302 303 303 304 302 300 299 297 296 295
285 282 292 296 293 291 291 289 285 277 279 283 286 282 288 295 296 297 297 299 299 300 300 299 299 299 299 299 298 297 297 295 296 296 296 298 298 298 296 295 295 294 294 293
285 284 295 295 296 295 290 286 291 284 282 282 286 289 293 295 295 295 296 297 298 298 299 299 299 299 298 297 297 296 295 294 294 294 294 294 294 294 292 293 293 293 293 291
289 284 292 294 296 296 293 294 284 287 279 278 283 284 286 291 293 295 295 297 298 298 298 298 298 298 298 298 297 296 295 293 293 292 292 292 292 292 292 292 292 291 291 290
292 289 288 293 291 288 290 288 290 289 286 281 280 284 293 293 294 295 297 298 298 298 298 297 298 298 297 297 296 295 294 293 292 292 292 291 291 291 291 291 291 290 290 289
293 290 284 288 293 294 293 290 290 284 283 285 283 285 293 295 295 296 298 299 300 299 299 298 298 297 297 296 295 295 294 294 293 292 291 291 290 290 289 289 289 289 288 288
293 289 282 284 289 292 291 292 292 291 288 284 282 285 294 295 295 297 297 299 299 299 299 299 299 298 298 297 297 296 295 294 293 291 290 289 289 288 288 288 288 288 288 287
296 290 287 283 286 290 287 290 292 290 286 285 286 287 291 293 295 297 298 300 300 299 299 299 300 300 300 300 299 297 296 295 292 290 289 289 288 288 288 288 288 287 287 286
294 287 288 287 288 290 289 289 291 289 290 285 288 288 292 295 297 298 300 300 299 298 299 300 300 301 301 300 299 298 296 294 292 290 289 288 288 288 287 286 287 286 286 285
294 286 288 284 287 288 287 289 291 291 291 291 291 290 297 298 299 299 299 299 298 298 299 300 300 301 300 300 298 297 295 293 291 290 288 288 287 286 286 286 285 285 285 285
291 286 285 282 286 286 282 286 288 290 293 292 288 293 297 296 297 298 299 299 298 299 300 300 300 299 298 299 297 296 295 293 290 289 288 287 286 284 284 284 284 283 283 284
291 288 285 281 283 277 287 288 291 290 292 294 294 295 297 298 300 300 302 301 299 300 301 301 301 300 298 298 296 296 293 290 289 288 287 285 284 283 283 283 283 283 283 283
295 290 283 281 281 286 287 286 286 287 288 294 293 295 297 298 299 299 301 302 302 302 302 302 302 301 299 295 294 291 289 288 287 286 286 284 283 283 282 281 282 282 282 282
293 293 288 281 280 277 285 286 290 292 283 294 294 294 295 296 290 295 302 301 301 302 302 298 296 294 294 293 290 287 286 286 285 285 284 284 283 282 282 282 281 282 282 281
285 285 284 283 282 286 290 287 292 282 286 288 290 293 294 293 296 294 295 296 295 295 294 293 292 291 290 287 285 285 285 284 285 284 283 282 282 282 282 282 282 281 281 281
285 283 283 283 281 279 289 288 286 291 288 287 289 293 294 296 292 290 290 290 290 291 290 290 290 289 287 285 284 284 284 284 283 282 281 280 280 281 282 280 280 280 280 279
285 289 287 287 287 288 289 291 292 290 290 289 289 291 293 293 292 291 289 289 288 289 289 287 286 284 284 282 282 283 283 281 279 278 277 278 279 280 281 280 279 279 279 278
288 287 289 288 289 288 288 291 289 289 289 289 289 289 291 289 289 289 290 289 288 286 284 283 283 282 283 282 280 282 280 278 276 277 276 277 277 279 279 280 280 279 277 277
288 287 286 287 285 286 288 288 290 289 289 288 288 288 288 289 288 288 287 286 286 285 284 283 283 283 283 283 280 279 278 276 277 277 277 278 278 278 279 279 279 279 279 279
287 287 287 287 289 291 291 292 290 288 287 288 286 286 285 286 287 286 285 285 285 284 284 282 281 279 280 280 281 279 277 276 277 277 277 278 278 278 278 278 278 281 281 281
Wind_Speed
11 8 12 16 16 8 6 9 10 3 4 3 11 14 13 10 11 12 11 12 11 12 11 10 6 5 6 5 5 4 4 3 1 2 2 1 0 3 4 5 7 7 7 6
7 13 10 4 7 8 8 8 9 4 0 3 8 14 16 15 17 16 16 15 14 13 12 9 8 8 8 7 5 5 4 3 3 2 2 1 3 4 5 4 6 7 7 8
10 2 10 10 11 11 9 10 7 4 1 6 8 14 19 11 13 14 13 13 15 15 15 12 11 9 8 7 6 5 4 4 3 2 4 4 5 4 4 4 4 6 7 7
10 7 11 11 12 11 11 8 3 3 3 5 2 6 5 6 6 8 9 10 13 13 10 12 12 9 8 6 5 5 4 4 3 1 3 4 2 4 3 4 4 4 7 8
5 12 16 14 14 10 2 8 7 4 4 4 9 6 6 1 9 9 5 1 3 2 7 10 12 10 8 6 6 5 5 5 4 3 2 3 5 5 4 3 4 4 5 8
6 2 6 4 5 10 12 13 8 3 2 6 11 8 6 7 4 6 5 2 1 3 4 5 9 9 7 6 6 5 6 5 5 5 4 4 6 5 4 3 2 3 4 5
7 7 4 8 13 5 8 12 4 3 4 6 3 6 9 3 3 2 5 4 1 2 5 9 10 10 9 9 7 6 6 6 6 6 6 6 5 5 5 4 4 3 4 4
12 6 11 9 7 9 13 5 3 7 6 3 4 8 4 4 3 1 3 1 3 5 6 9 10 9 8 8 7 7 6 7 6 6 6 5 5 5 5 5 4 4 4 4
10 5 7 10 2 14 8 7 4 4 2 2 7 7 11 5 3 3 3 4 5 6 7 9 9 9 9 8 7 7 7 7 6 6 5 6 5 5 6 5 4 4 4 4
5 7 7 4 3 3 5 12 4 3 5 6 6 6 7 4 5 5 6 7 7 7 8 9 9 9 8 8 7 7 7 7 6 5 5 4 5 5 5 5 5 4 4 4
6 5 7 7 10 13 6 6 6 5 3 3 3 4 3 5 4 5 7 8 9 9 8 8 8 8 8 8 8 8 7 7 7 6 6 5 5 5 4 4 4 4 4 3
4 6 6 13 1 3 13 9 11 4 6 4 3 5 5 5 4 4 6 9 8 9 10 9 9 9 10 9 9 9 9 8 7 6 5 5 5 4 4 4 4 4 4 3
10 6 7 5 3 2 7 10 12 9 2 8 5 2 4 4 5 6 9 11 10 10 10 9 10 10 10 11 10 9 8 7 6 6 6 6 5 4 4 5 5 5 5 4
7 3 8 11 4 10 10 17 15 14 6 8 16 14 6 6 7 7 10 12 11 10 11 10 10 11 11 10 9 8 7 7 7 8 8 7 6 6 7 6 6 5 5 4
8 4 5 3 2 9 8 13 21 23 21 14 10 19 17 10 10 10 12 11 13 14 13 12 11 9 10 9 7 7 8 9 9 8 7 7 6 7 6 6 6 5 5 4
9 3 6 2 2 3 10 14 19 22 21 22 21 21 11 10 11 10 13 15 15 15 14 12 10 8 8 9 9 9 9 9 9 9 8 8 7 6 6 6 5 5 5 5
10 6 3 3 3 1 11 16 17 16 21 19 24 16 12 14 14 15 16 16 17 16 14 11 9 8 7 8 8 9 8 8 9 8 8 8 9 8 7 7 7 6 7 6
13 7 2 3 3 9 1 1 11 20 19 19 22 15 12 14 14 14 14 17 18 17 14 11 10 8 7 7 8 7 7 7 7 8 9 8 8 8 8 8 8 7 7 7
12 8 4 5 8 10 11 7 7 9 12 19 21 19 16 13 6 14 15 13 16 15 12 9 8 8 7 10 9 9 7 7 8 9 8 9 10 9 10 10 10 9 8 7
8 12 5 4 5 8 3 2 3 5 9 13 13 15 17 10 11 10 11 11 9 7 4 6 6 5 8 9 8 8 7 7 9 7 7 8 9 9 10 10 9 8 8 7
6 6 12 7 7 6 5 7 6 6 2 1 1 8 8 11 11 3 4 5 3 2 5 5 7 9 6 7 7 8 7 11 5 6 7 8 9 9 9 9 8 8 7 7
11 9 6 4 8 13 8 5 9 2 2 1 1 1 4 6 5 3 2 3 5 5 4 5 5 4 6 7 8 7 10 5 6 6 6 7 7 7 7 9 8 8 8 9
8 6 6 10 6 2 14 2 6 2 3 2 1 2 3 4 3 4 3 4 5 5 5 4 4 5 4 6 7 7 3 6 6 6 5 6 7 7 8 9 9 8 9 8
6 1 2 3 3 5 9 4 2 5 3 3 3 3 4 4 4 4 5 5 5 2 3 4 6 7 8 8 7 6 5 5 6 5 6 6 8 8 8 7 8 8 9 8
3 10 6 5 3 1 9 8 6 5 2 3 3 2 4 5 4 5 4 6 5 6 6 5 8 8 7 5 5 6 6 7 6 6 7 8 7 9 9 8 8 8 9 10
6 6 9 7 8 4 3 10 8 8 7 5 6 4 4 4 6 2 4 5 4 4 0 3 5 3 3 4 7 7 7 9 9 8 7 7 7 7 7 7 7 14 13 16
Wind_Direction
185 204 197 201 211 246 288 213 238 120 72 270 241 255 258 256 231 244 243 243 228 227 211 146 164 144 137 134 135 130 127 77 108 151 171 195 133 93 70 62 43 37 30 14
169 227 217 225 170 199 207 210 225 72 97 265 284 273 271 249 240 236 238 236 230 219 204 167 173 165 172 145 138 126 115 86 87 142 114 59 103 60 77 81 59 38 43 30
201 96 132 159 180 187 207 217 202 288 163 230 290 271 253 233 252 241 236 247 245 229 214 190 191 185 163 156 144 128 109 103 87 145 125 104 106 122 137 101 75 41 41 39
227 128 180 185 194 196 205 209 234 202 258 267 339 287 187 189 208 200 215 229 238 243 243 197 178 183 173 136 110 96 78 75 64 215 169 176 167 134 78 86 75 66 38 38
164 176 176 194 200 191 147 148 177 181 236 330 209 253 237 98 241 207 162 110 222 301 281 219 163 169 145 145 124 112 100 82 70 73 97 130 97 104 112 108 99 75 62 42
103 347 167 137 136 190 134 121 105 122 233 245 224 222 251 203 241 145 169 91 198 217 220 176 138 140 146 137 140 134 128 102 86 86 84 105 122 129 130 124 96 59 50 43
133 150 121 152 120 149 170 159 110 203 212 240 103 222 273 145 172 268 309 307 117 163 162 148 159 170 162 158 149 145 134 110 99 94 89 92 98 94 90 69 57 53 56 45
171 189 177 178 197 175 186 191 184 208 201 165 139 230 237 91 111 338 334 3 135 154 149 165 168 163 161 152 156 153 136 118 109 104 98 87 82 83 83 70 76 64 61 53
169 112 129 177 150 150 171 200 43 95 38 267 197 231 273 177 163 177 170 180 166 156 158 162 163 167 162 162 163 160 147 133 131 123 112 98 89 88 94 90 85 83 79 80
156 113 178 127 149 224 212 143 140 217 202 233 194 252 247 191 172 160 175 187 167 162 162 164 169 170 166 165 165 164 161 155 140 127 119 117 118 108 106 105 98 96 97 86
149 109 155 165 213 181 160 183 215 182 277 259 270 219 85 153 163 176 185 184 174 173 173 173 174 172 174 174 175 179 174 163 165 163 146 139 124 112 105 105 106 100 101 97
162 108 160 191 58 340 227 227 194 217 185 244 333 259 156 150 172 197 185 180 176 174 180 182 180 179 183 187 187 190 186 182 173 160 144 126 122 127 135 129 123 131 128 117
167 170 129 188 215 195 228 216 230 248 318 206 228 233 152 173 216 202 202 182 183 187 182 182 185 189 193 194 193 196 188 178 163 157 160 155 156 161 155 153 156 161 154 142
177 223 231 232 234 155 195 209 213 215 224 239 229 260 181 204 226 195 199 189 186 185 187 192 190 194 195 195 189 189 182 175 169 175 179 177 175 183 179 175 174 169 163 154
197 192 197 100 124 194 204 207 208 218 224 227 245 235 243 211 221 206 197 191 186 189 196 201 200 197 193 187 180 173 176 179 179 183 183 187 185 189 179 180 176 170 168 150
198 168 167 119 125 209 236 236 224 224 231 243 255 254 257 242 216 209 201 190 199 204 200 203 201 194 198 182 184 180 180 177 178 182 190 192 181 181 183 177 171 166 163 157
178 144 139 189 162 340 266 226 234 238 226 230 236 241 235 244 235 227 212 202 205 208 203 203 201 196 195 193 171 186 181 159 182 180 185 184 181 182 179 174 173 172 170 163
189 144 99 117 172 229 305 84 236 224 234 233 249 252 248 244 238 234 228 215 210 211 212 208 206 206 176 172 181 165 152 162 175 191 189 180 180 180 175 173 175 172 170 171
199 165 131 184 216 306 277 183 177 189 250 236 246 242 242 243 268 245 221 232 224 220 218 211 199 208 192 179 173 161 156 168 184 191 188 181 180 175 173 181 181 177 171 172
218 194 193 171 222 231 65 125 182 142 284 220 222 235 236 215 229 242 216 205 234 232 202 154 158 156 167 186 149 146 171 184 208 185 182 178 180 178 180 180 176 171 169 164
176 184 204 186 226 272 158 155 185 151 229 96 227 242 219 209 218 78 41 64 68 35 168 162 173 186 181 131 138 184 175 214 167 154 162 172 179 179 175 171 171 161 163 155
174 166 186 160 217 251 140 118 182 156 61 58 280 208 191 176 116 133 144 157 175 192 184 171 175 168 151 158 169 197 210 170 151 152 157 165 168 168 170 161 160 163 163 158
211 205 177 200 214 91 181 170 199 86 142 185 227 179 150 155 195 181 191 220 234 210 182 151 158 156 183 184 190 202 206 143 140 143 151 158 161 171 164 165 164 166 169 167
221 117 185 132 190 192 209 212 259 191 200 134 63 89 144 135 178 213 220 215 223 232 230 163 170 206 216 202 196 204 130 134 143 165 160 161 168 170 174 174 173 178 175 176
150 143 157 263 209 292 248 233 222 203 202 199 103 159 171 174 197 214 219 229 228 221 210 187 202 216 227 164 177 171 175 156 174 179 175 180 184 183 181 190 180 186 189 185
182 163 187 215 181 169 187 211 186 187 199 169 179 213 238 188 224 199 234 228 219 238 136 204 223 230 177 192 219 187 174 173 181 190 185 186 179 175 180 181 177 203 192 196